Showing default

TEN-KOH, 43677

Orbit data source: Space-Track

TEN-KOH, 43677 is a payload satellite owned by Kyutech (JP) in SSO that was launched on Mon, 29 Oct 2018 UTC via an H-IIA 202 launch vehicle from the Tanegashima Space Center (TNSTA). Payload-class satellites include a variety of spacecraft equipped with specific instruments for various scientific and technological missions. These include communications satellites like Starlink; space stations such as the ISS; scientific satellites like the Hubble; Earth observation satellites from companies like Planet Labs, Umbra, and HawkEye 360; GPS; miniature CubeSats for education and research; and military/defense satellites.

Loading next visibility...
Identifier
43677, 2018-084G
Orbit
SSO
Country
Flag of JPJP / JPN
Related business
Manufacturer
Kyutech
Mission
Operational Amateur Technology
Bus & Motor
SHINEN-2, Unknown motor
Mass
22.3 kg wet, 22.3 kg dry
Launch date (UTC)
2018-10-29 (8 years ago)
Launch vehicle
H-IIA 202
Launch site
Tanegashima Space Center (TNSTA)
Object type
Payload
Rocket body
Debris
Shape & HBR
Polyhedral Cyl, 0.3 m
Radar Cross Section
0.295 m², Medium (>0.1 m² and < 1m²)

Expand to show TLE details & history
Last TLE update: 2 days ago

TLE from 2 days ago
0 TEN-KOH
1 43677U 18084G   26171.45254676  .00001314  00000-0  10266-3 0  9991
2 43677  98.0770   3.9542 0011523 104.7855 255.4646 15.02952458416650
Epoch: 2026-06-20T10:51Z
TLE epoch observation values (Epoch: 2026-06-20T10:51:40.040Z)
Latitude
-0.00004°
Longitude
-67.62959°
Altitude
562.86 km
Speed
7.579 km/s
True Right ascension
00h 15m 49s
True Declination
0° 00' 00"
Sunlit
Object was in daylight at epoch
Visualization orbit readout
Latitude
Unknown
Longitude
Unknown
Altitude
Unknown
Speed
Unknown
Apparent Right ascension
Unknown
Apparent Declination
Unknown
Sunlit
N/A
Visualization observer readout
Local Sidereal Time
23:19:34
Azimuth
Unknown
Elevation
Unknown
Doppler factor
Unknown
Orbital elements
Apogee altitude
562.805 km
Perigee altitude
546.827 km
Semi-major axis
6,932.953 km
Eccentricity
0.00115
Inclination
98.077°
RAAN
3.9542°
Arg. of periapsis
104.7855°
True anomaly
255.33683°
Mean anomaly
255.4646°
Eccentric anomaly
255.40071°
Mean motion
3.75981 °/min
Orbital period
95.75 mins
BSTAR
0.00010266
Loading maneuver chart data...
Computing Atmospheric mass density...
Loading historical data...
Loading historical data...
Loading historical data...
Loading historical data...
Loading historical data...
Loading historical data...
Loading historical data...

Documentation

Showing up to 5 results
|